SCP
1 1 1 1 0 0 0 0 0 0 0 0 0 0 0 0 0 0 0 0 0 0 0 0 0 0 0 0 0 0 0 0 0 0 0 0 0 0 0 0 0 0 0 0
1 1 1 1 1 0 0 0 0 0 0 0 0 0 0 0 0 0 0 0 0 0 0 0 0 0 0 0 0 0 0 0 0 0 0 0 0 0 0 0 0 0 0 0
1 1 1 1 1 0 0 0 0 0 0 0 0 0 0 0 0 0 0 0 0 0 0 0 0 0 0 0 0 0 0 0 0 0 0 0 0 0 0 0 0 0 0 0
1 1 1 1 0 0 0 0 0 0 0 0 0 0 0 0 0 0 0 0 0 0 0 0 0 0 0 0 0 0 0 0 0 0 0 0 0 0 0 0 0 0 0 0
0 0 0 0 0 0 0 0 0 0 0 0 0 0 0 0 0 0 0 0 0 0 0 0 0 0 0 0 0 0 0 0 0 0 0 0 0 0 0 0 0 0 0 0
0 0 0 0 0 0 0 0 0 0 0 0 0 0 0 0 0 0 0 0 0 0 0 0 0 0 0 0 0 0 0 0 0 0 0 0 0 0 0 0 0 0 0 0
0 0 0 0 0 0 0 0 0 0 0 0 0 0 0 0 0 0 0 0 0 0 0 0 0 0 0 0 0 0 0 0 0 0 0 0 0 0 0 0 0 0 0 0
0 0 0 0 0 0 0 0 0 0 0 0 0 0 0 0 0 0 0 0 0 0 0 0 0 0 0 0 0 0 0 0 0 0 0 0 0 0 0 0 0 0 0 0
0 0 0 0 0 0 0 0 0 0 0 0 0 0 0 0 -0 0 0 0 0 0 0 0 0 0 0 0 0 0 0 0 0 0 0 0 0 0 0 0 0 0 0 0
0 0 0 0 0 0 0 0 0 0 0 0 0 0 0 0 -0 0 0 0 0 0 0 0 0 0 0 0 0 0 0 0 0 0 0 0 0 0 0 0 0 0 0 0
0 0 0 0 0 0 0 0 0 0 0 0 0 0 0 0 -0 -0 0 0 0 0 0 0 0 0 0 0 0 0 0 0 0 0 0 0 0 0 0 0 0 0 0 0
0 0 0 0 0 0 0 0 0 0 0 0 0 0 0 0 0 -0 0 0 0 0 0 0 0 0 0 0 0 0 0 0 0 0 0 0 0 0 0 0 0 0 0 0
0 0 0 0 0 0 0 0 0 0 0 0 0 0 0 0 0 -0 -0 -0 0 0 0 0 0 0 0 0 0 0 0 0 0 0 0 0 0 0 0 0 0 0 0 0
0 0 0 0 0 0 0 0 0 0 0 0 0 0 0 0 0 0 -0 -0 0 0 0 0 0 0 0 0 0 0 0 0 0 0 0 0 0 0 0 0 0 0 0 0
0 0 0 0 0 0 0 0 0 0 0 0 0 0 0 0 0 0 0 0 0 0 0 0 0 0 0 0 0 0 0 0 0 0 0 0 0 0 0 0 0 0 0 0
0 0 0 0 0 0 0 0 0 0 0 0 0 0 0 0 0 0 0 0 0 0 0 0 0 0 0 0 0 0 0 0 0 0 0 0 0 0 0 0 0 0 0 0
0 0 0 0 0 0 0 0 0 0 0 0 0 0 0 0 0 0 0 0 0 0 0 0 0 0 0 0 0 0 0 0 0 0 0 0 0 0 0 0 0 0 0 0
0 0 0 0 0 0 0 0 0 0 0 0 0 0 0 0 0 0 0 0 0 0 0 0 0 0 0 0 0 0 0 0 0 0 0 0 0 0 0 0 0 0 0 0
0 0 0 0 0 0 0 0 0 0 0 0 0 0 0 0 0 0 0 0 0 0 0 0 0 0 0 0 0 0 0 0 0 0 0 0 0 0 0 0 0 0 0 0
0 0 0 0 0 0 0 0 0 0 0 0 0 0 0 0 0 0 0 0 0 0 0 0 0 0 0 0 0 0 0 0 0 0 0 0 0 0 0 0 0 0 0 0
0 0 0 0 0 0 0 0 0 0 0 0 0 0 0 0 0 0 0 0 0 0 0 0 0 0 0 0 0 0 0 0 0 0 0 0 0 0 0 0 0 0 0 0
0 0 0 0 0 0 0 0 0 0 0 0 0 0 0 0 0 0 0 0 0 0 0 0 0 0 0 0 0 0 0 0 0 0 0 0 0 0 0 0 0 0 0 0
0 0 0 0 0 0 0 0 0 0 0 0 0 0 0 0 0 0 0 0 0 0 0 0 0 0 0 0 0 0 0 0 0 0 0 0 0 0 0 0 0 0 0 0
0 0 0 0 0 0 0 0 0 0 0 0 0 0 0 0 0 0 0 0 0 0 0 0 0 0 0 0 0 0 0 0 0 0 0 0 0 0 0 0 0 0 0 0
0 0 0 0 0 0 0 0 0 0 0 0 0 0 0 0 0 0 0 0 0 0 0 0 0 0 0 0 0 0 0 0 0 0 0 0 0 0 0 0 0 0 0 0
0 0 0 0 0 0 0 0 0 0 0 0 0 0 0 0 0 0 0 0 0 0 0 0 0 0 0 0 0 0 0 0 0 0 0 0 0 0 0 0 0 0 0 0
Wind_Speed
4 5 5 9 8 4 4 4 4 4 3 5 6 7 7 3 5 6 6 6 6 6 4 3 3 3 2 1 0 1 1 2 1 1 2 2 2 3 3 3 3 3 3 3
5 4 7 5 5 3 3 3 3 3 1 4 3 6 5 4 6 7 8 8 7 5 3 4 3 3 2 2 1 1 1 1 1 1 1 1 2 2 3 3 3 3 3 3
6 4 6 7 5 5 4 5 4 2 1 2 2 6 4 2 2 3 4 5 6 7 7 6 4 4 3 3 3 2 2 2 2 2 1 2 2 2 3 3 3 4 4 4
3 2 5 5 5 6 4 4 4 3 2 2 1 4 7 3 3 3 4 5 6 6 6 5 5 4 4 4 3 2 2 2 2 1 1 1 1 2 3 3 3 5 4 4
2 3 5 5 5 6 3 2 3 2 3 1 1 1 8 2 4 5 5 6 6 6 6 6 6 6 4 3 2 2 2 2 2 1 1 1 1 2 3 3 4 4 4 4
1 1 3 4 1 4 5 6 6 5 4 1 2 3 7 4 6 4 4 6 6 6 5 5 4 3 3 2 2 2 2 3 2 2 1 1 2 3 4 4 4 4 4 4
2 1 0 3 4 3 4 6 4 4 4 5 2 2 9 6 6 5 6 7 6 6 6 5 5 5 4 4 3 3 3 3 3 2 2 2 3 3 3 4 4 4 3 3
2 2 2 2 4 5 3 7 6 4 4 5 2 5 8 5 4 3 3 4 5 5 6 6 6 6 5 5 4 3 3 4 3 3 3 3 3 2 2 3 3 3 3 4
4 3 1 1 2 8 5 3 5 6 2 2 5 7 8 2 1 1 2 3 6 6 7 7 6 6 5 5 5 4 4 4 3 3 3 3 3 2 3 4 3 3 3 4
5 2 1 0 5 4 4 8 5 5 3 2 6 5 5 5 5 4 4 6 7 6 5 6 5 6 5 5 4 3 3 4 3 3 3 2 3 3 3 3 4 4 4 4
3 3 2 1 3 5 4 4 5 4 5 5 3 8 7 7 7 7 8 7 7 7 7 6 6 5 4 3 3 3 3 3 3 3 2 3 3 3 3 3 4 4 4 4
3 5 0 3 2 2 4 7 8 5 4 4 3 10 6 6 6 6 8 7 6 6 6 6 5 4 4 4 4 4 3 3 3 3 2 2 3 3 3 4 4 4 4 4
5 5 3 6 6 1 2 3 4 6 5 5 5 9 5 3 4 6 7 6 5 5 5 5 4 5 5 5 4 4 4 4 3 2 2 2 3 3 3 3 4 4 4 4
6 4 6 6 7 4 3 4 5 6 5 5 9 10 8 6 6 6 6 6 6 5 6 6 5 6 5 5 5 5 4 4 3 2 2 3 3 3 3 3 3 4 3 4
5 3 4 5 5 3 4 5 6 8 8 9 9 9 12 10 9 8 6 5 5 5 6 7 7 6 5 5 5 4 4 4 3 2 3 4 3 3 3 3 3 3 3 3
3 3 1 3 2 3 4 7 7 8 6 7 6 10 11 7 4 5 6 7 7 8 8 8 7 7 7 7 6 5 5 4 3 3 4 3 3 2 3 3 3 3 3 3
3 5 3 4 4 3 6 9 9 7 7 9 10 13 6 4 7 9 9 9 10 9 8 8 8 8 8 7 7 6 6 4 3 4 3 3 2 3 3 3 3 3 3 3
6 5 3 1 2 5 10 4 5 7 8 9 9 8 7 9 7 5 7 9 9 8 8 8 7 7 6 6 5 5 4 3 3 3 3 3 3 3 3 2 3 3 2 2
5 7 4 3 2 7 10 5 5 5 8 8 10 9 5 2 1 4 6 8 9 8 8 7 7 6 6 6 6 5 4 3 3 4 4 4 3 3 2 3 3 3 2 3
4 5 6 4 2 6 10 4 3 3 6 6 7 7 5 7 3 7 6 7 7 6 5 5 5 5 5 5 6 6 5 4 4 5 4 3 3 3 3 3 3 2 2 3
2 3 4 5 4 9 10 4 4 3 8 5 5 7 9 10 9 5 4 5 6 5 5 6 6 6 5 5 7 6 5 5 5 4 3 3 3 3 3 2 2 2 2 2
7 5 5 5 4 10 5 4 6 8 5 3 4 5 9 9 4 3 5 6 7 6 6 7 6 5 4 6 7 6 5 5 3 2 2 2 2 2 1 2 2 1 1 2
7 8 7 10 10 7 3 6 6 3 5 5 4 5 7 6 6 6 6 6 6 7 6 6 7 6 4 4 6 6 5 3 3 3 2 1 1 1 1 1 1 1 1 1
4 3 3 5 9 8 7 7 6 5 6 7 5 5 6 8 7 7 6 6 6 6 7 6 7 7 5 4 4 4 3 4 4 3 2 1 0 0 1 0 0 0 0 1
5 3 3 6 9 9 7 5 5 5 5 6 5 5 7 8 7 8 8 8 7 6 6 6 7 7 6 5 4 3 3 5 4 3 2 1 1 0 0 1 0 0 0 1
6 7 6 9 8 6 9 8 6 6 8 7 6 5 5 8 9 8 8 7 7 7 7 7 7 7 6 5 4 3 4 5 5 3 2 1 1 1 1 1 2 2 2 4
Wind_Direction
123 112 169 191 189 183 168 180 233 252 194 178 225 258 271 205 203 215 212 206 213 219 220 191 183 169 155 164 197 287 315 325 350 351 340 332 322 319 326 326 330 330 325 322
96 189 200 168 160 142 157 195 245 285 167 184 250 276 277 212 211 213 209 208 209 203 195 192 185 174 179 193 220 249 261 295 314 291 272 260 274 291 290 305 321 327 330 325
149 201 155 139 149 160 193 202 213 214 45 47 351 314 305 305 248 221 204 198 196 195 197 196 192 195 193 211 218 223 238 268 299 319 335 341 345 337 339 333 328 326 326 322
144 170 144 145 172 164 223 225 193 160 105 304 56 289 294 303 300 246 215 198 201 202 194 194 195 200 207 219 221 227 243 270 293 323 358 357 344 319 299 301 305 315 323 322
175 162 149 172 200 170 194 68 101 99 124 11 360 194 286 322 273 257 229 212 207 203 196 198 201 206 212 214 216 229 255 279 297 313 314 332 309 283 293 304 317 324 325 326
126 176 174 180 120 144 129 74 58 51 70 327 245 177 278 247 231 250 224 207 204 199 197 201 203 200 216 219 226 234 254 276 295 311 306 290 297 307 319 325 328 326 322 321
32 4 201 137 100 73 94 89 35 3 10 261 275 204 252 258 241 229 221 211 202 193 189 195 200 206 217 224 234 238 246 269 288 300 297 290 288 294 300 306 312 318 321 317
130 274 231 170 161 156 147 136 155 192 227 281 312 241 256 263 273 238 213 193 186 192 197 205 209 208 216 228 234 233 242 262 279 287 292 293 293 288 290 295 298 301 298 298
159 241 311 170 145 128 128 147 156 128 157 291 288 289 301 259 265 180 173 176 201 206 206 211 212 211 218 227 230 227 233 254 270 277 289 295 301 298 302 306 302 298 301 306
148 169 323 105 81 45 129 140 103 111 141 274 299 286 260 260 245 234 218 217 223 217 214 214 211 213 219 225 231 228 229 242 258 273 280 290 294 298 304 313 315 315 315 319
123 127 345 68 174 175 118 103 104 108 144 155 268 276 232 227 224 220 227 225 220 213 212 211 212 213 216 221 222 226 235 244 260 269 278 298 303 309 317 319 317 317 320 327
134 115 178 271 271 199 173 165 148 150 199 170 182 267 264 242 238 223 232 232 222 213 210 206 206 205 210 218 221 224 231 239 250 258 271 287 301 317 326 324 323 325 327 331
137 109 61 349 342 347 165 153 147 126 120 154 177 262 289 277 243 228 229 232 222 212 205 198 196 205 214 218 220 225 230 237 247 250 265 288 303 311 313 315 323 330 332 335
115 116 160 198 226 223 221 177 155 137 155 199 219 248 283 271 250 240 228 225 214 210 203 198 205 214 217 217 218 222 233 233 233 232 251 271 282 288 294 307 320 327 332 335
111 166 218 236 240 217 232 223 186 191 195 197 230 231 250 245 232 233 225 212 202 208 206 204 207 211 212 215 220 221 229 230 221 222 245 261 275 285 293 308 316 323 330 332
109 164 184 291 291 232 252 250 219 217 213 220 243 258 250 250 228 228 220 202 205 212 211 208 206 204 206 210 213 214 222 222 202 216 242 261 277 286 289 298 310 322 326 330
140 141 136 269 306 -0 275 240 213 211 207 190 216 241 245 221 220 219 215 205 209 212 208 204 203 202 204 205 202 207 213 201 196 220 243 255 261 272 281 294 309 311 314 325
144 131 139 203 17 251 247 250 209 219 239 213 225 240 223 221 228 226 205 200 212 210 205 204 201 200 202 198 195 196 184 181 198 221 242 247 246 260 277 291 293 295 302 307
146 136 126 133 220 280 293 275 190 197 267 226 219 239 232 192 80 289 219 200 207 204 197 196 191 186 182 185 182 167 173 180 197 225 238 241 233 246 265 276 279 281 293 301
75 103 119 136 182 248 255 263 186 139 283 258 204 216 178 132 159 252 222 194 202 193 182 175 163 155 165 179 159 158 176 185 214 227 234 234 222 227 244 258 268 268 266 281
100 90 141 168 213 260 255 265 131 162 248 267 203 197 172 185 205 225 172 174 175 171 165 152 147 157 173 161 152 163 177 208 224 222 224 227 224 228 237 253 257 267 282 301
182 171 186 154 187 254 257 150 178 223 261 270 226 202 196 215 218 183 175 170 160 154 149 148 148 156 154 152 154 164 196 219 205 189 199 221 231 239 230 237 271 277 293 315
199 192 186 188 213 235 236 220 243 253 264 258 237 227 201 205 210 195 185 177 171 163 157 152 150 147 146 158 161 172 205 186 156 150 178 218 244 258 263 230 270 304 320 314
260 175 173 249 268 265 262 255 258 244 247 259 248 232 196 204 205 193 184 179 173 168 164 154 148 151 162 170 173 183 175 153 146 154 177 178 158 334 353 336 248 224 288 289
241 178 215 258 277 302 297 269 274 280 273 271 260 227 211 202 202 192 187 185 179 171 164 158 160 164 170 166 171 173 158 147 147 155 162 152 150 143 49 36 34 176 251 188
211 199 208 242 246 242 272 288 294 282 275 265 255 252 230 205 204 192 190 185 175 170 162 160 164 164 165 159 164 168 162 155 150 150 155 153 146 133 113 83 38 34 57 46